Location: �perlecques
(50.8057°N, 2.1521°E)
Time: 11:35:03
(UTC+00:00)

AO-85 - Visible Passes

Search period start: 27 September 2021 00:00
Search period end: 07 October 2021 00:00
Orbit: 521 x 762 km, 64.8° (Epoch: 12 March)

Date Brightness Start Highest point End Pass type
(mag) Time Alt. Az. Time Alt. Az. Time Alt. Az.
27 Sep ? 18:29:30 10° NW 18:34:45 56° NE 18:39:29 12° ESE visible
27 Sep ? 20:10:17 10° NW 20:15:01 34° WSW 20:17:05 25° SSW visible
28 Sep ? 18:53:53 10° NW 18:59:14 86° SW 19:03:35 15° SE visible
28 Sep ? 20:35:31 10° WNW 20:38:56 18° WSW 20:41:12 14° SW visible
29 Sep ? 19:18:25 10° NW 19:23:30 47° WSW 19:27:49 13° SSE visible
30 Sep ? 18:02:12 10° NW 18:07:33 73° NE 18:12:43 10° SE visible
30 Sep ? 19:43:18 10° WNW 19:47:31 25° WSW 19:51:38 10° SSW visible
01 Oct ? 18:26:39 10° NW 18:31:55 64° SW 18:37:00 10° SSE visible
01 Oct ? 20:09:22 10° W 20:11:20 12° WSW 20:13:17 10° SW visible
02 Oct ? 18:51:20 10° NW 18:56:03 34° WSW 19:00:38 10° S visible
03 Oct ? 19:16:35 10° WNW 19:19:58 17° WSW 19:23:17 10° SSW visible
04 Oct ? 17:59:27 10° NW 18:04:31 46° WSW 18:09:25 10° SSE visible
05 Oct ? 18:24:21 10° WNW 18:28:33 24° WSW 18:32:37 10° SSW visible
06 Oct ? 18:50:27 10° W 18:52:21 12° WSW 18:54:13 10° SW visible
